Location: Caoba
(9.7667°N, 67.4833°W)
Time: 03:52:39
(UTC+00:00)

Meteor 1-27 Rocket - Pass Details

Date: 08 September 2024
Orbit: 830 x 908 km, 81.3° (Epoch: 09 October)

Event Time Altitude Azimuth Distance (km) Brightness Sun altitude
Rises 23:24:00 0° 358° (N) 3,392 7.0 -13.0°
Reaches altitude 10° 23:26:24 10° 1° (N) 2,467 6.2 -13.6°
Maximum altitude 23:31:59 72° 85° (E) 904 3.6 -15.0°
Drops below altitude 10° 23:37:41 10° 169° (SSE) 2,522 6.0 -16.3°
Sets 23:40:09 0° 171° (S) 3,472 6.7 -16.9°
